Regional Weather Roundup
Issued by NWS

Home | Current Version | Previous Version | Text Only | Print | Product List | Glossary On
Versions: 1 2 3 4 5 6 7 8 9 10 11 12 13 14 15 16 17 18 19 20 21 22 23 24 25 26 27 28 29 30 31 32 33 34 35 36 37 38 39 40 41 42 43 44 45 46 47 48 49 50
622
ASUS44 KJAN 311310
RWRMS

MISSISSIPPI HOURLY WEATHER ROUNDUP
NATIONAL WEATHER SERVICE JACKSON MS
700 AM CST SAT JAN 31 2015

NOTE: "FAIR: INDICATES FEW OR NO CLOUDS BELOW 12,000 FEET WITH NO
SIGNIFICANT WEATHER AND/OR OBSTRUCTIONS TO VISIBILITY.

MSZ001>002-007>008-010>013-018>021-025>028-034>036-311400-
NORTHWEST MISSISSIPPI

CITY           SKY/WX    TMP DP  RH WIND       PRES   REMARKS
CLARKSDALE     FAIR      37  28  70 E6        30.38R WCI  33
CLEVELAND      FAIR      37  31  77 E5        30.37R WCI  34
GREENWOOD      CLOUDY    36  26  67 CALM      30.36F
GREENVILLE     MOCLDY    37  29  72 E6        30.35R WCI  32
GRENADA        FAIR      34  30  86 E5        30.38S WCI  30
OLIVE BRANCH   MOCLDY    34  27  75 CALM      30.37S
OXFORD         FAIR      36  21  55 SE7       30.39R WCI  30
TUNICA         CLOUDY    36  28  75 E5        30.38R WCI  32
$$

MSZ003>006-009-014>017-022>024-029>033-037>039-311400-
NORTHEAST MISSISSIPPI

CITY           SKY/WX    TMP DP  RH WIND       PRES   REMARKS
COLUMBUS AFB   CLOUDY    31  28  87 NW3       30.39R
CORINTH        FAIR      32  28  86 CALM      30.38R
GOLDN TRIANGLE PTCLDY    30  25  80 CALM      30.37R
STARKVILLE     FAIR      30  28  93 CALM      30.39R
TUPELO         CLOUDY    33  25  72 CALM      30.39R
$$

MSZ040-058-311400-
CENTRAL MISSISSIPPI

CITY           SKY/WX    TMP DP  RH WIND       PRES   REMARKS
JACKSON INTL   MOCLDY    38  25  59 E8        30.34R WCI  32
JACKSON HAWKNS PTCLDY    37  26  64 E3        30.35R
MERIDIAN KEY   CLEAR     27  25  92 CALM      30.37R
MERIDIAN NAS   CLEAR     27  24  89 CALM      30.37R
RAYMOND        FAIR      37  32  81 MISG      30.34S
VICKSBURG      PTCLDY    38  30  73 E7        30.34S WCI  33
$$

MSZ059>079-311400-
SOUTH MISSISSIPPI

CITY           SKY/WX    TMP DP  RH WIND       PRES   REMARKS
BROOKHAVEN     FAIR      36  30  80 CALM      30.34R
HATTIESBURG    CLEAR     29  28  96 CALM      30.35R
MCCOMB         CLEAR     37  27  67 CALM      30.32R
NATCHEZ        CLOUDY    37  28  70 E6        30.32S WCI  33
PINE BELT      CLEAR     34  25  69 NE5       30.34S WCI  30
$$

MSZ080>082-311400-
COASTAL MISSISSIPPI

CITY           SKY/WX    TMP DP  RH WIND       PRES   REMARKS
BAY ST LOUIS   CLEAR     37  27  65 N5        30.32  WCI  34
BILOXI         CLEAR     36  31  81 NE5       30.31R WCI  32
PASCAGOULA     CLEAR     31  28  89 N3        30.32R
GULFPORT       CLEAR     38  29  70 NE6       30.31R WCI  33
$$



USA.gov is the U.S. government's official web portal to all federal, state and local government web resources and services.